Regional Weather Roundup
Issued by NWS

Home | Current Version | Previous Version | Graphics & Text | Print | Product List | Glossary On
Versions: 1 2 3 4 5 6 7 8 9 10 11 12 13 14 15 16 17 18 19 20 21 22 23 24 25 26 27 28 29 30 31 32 33 34 35 36 37 38 39 40 41 42 43 44 45 46 47 48 49 50
000
ASUS43 KOAX 072210
RWRNE

WEATHER ROUNDUP FOR NEBRASKA
NATIONAL WEATHER SERVICE OMAHA NE
500 PM CDT TUE JUL 07 2015

NOTES: SATELLITE DATA IS BEING USED TO AUGMENT CLOUD COVER ABOVE
       12000 FEET.
       "FAIR" INDICATES FEW OR NO CLOUDS BELOW 12,000 FEET WITH NO
       SIGNIFICANT WEATHER AND/OR OBSTRUCTIONS TO VISIBILITY.

  * THESE STATIONS DO NOT REPORT WEATHER SUCH AS RAIN...SNOW OR FOG.

NEZ001>004-019>022-054>056-072300-
NEBRASKA PANHANDLE

CITY           SKY/WX    TMP DP  RH WIND       PRES   REMARKS
SCOTTSBLUFF    CLOUDY    70  52  52 SE14      30.11S
ALLIANCE       CLOUDY    69  52  54 SE16      30.11F
CHADRON        CLOUDY    71  54  54 S14       30.08F
KIMBALL          N/A    N/A N/A N/A MISG        N/A
SIDNEY         CLOUDY    72  47  40 SE16G24   30.14F
$$

NEZ057>060-069>072-079>082-072300-
SOUTHWEST NEBRASKA

CITY           SKY/WX    TMP DP  RH WIND       PRES   REMARKS
NORTH PLATTE   CLOUDY    73  52  47 SE10      30.13S
IMPERIAL       CLOUDY    74  46  36 E13       30.12F
LEXINGTON      MOSUNNY   76  50  39 NE10      30.12F
MCCOOK         MOSUNNY   77  50  38 E13       30.12F
OGALLALA       CLOUDY    74  50  43 S14       30.12F
$$

NEZ005>010-023>029-035>040-094-072300-
NORTH CENTRAL NEBRASKA

CITY           SKY/WX    TMP DP  RH WIND       PRES   REMARKS
VALENTINE      CLOUDY    73  53  49 SE8       30.11F
AINSWORTH      PTSUNNY   73  54  51 SE6       30.12F
BROKEN BOW     MOSUNNY   74  52  46 VRB5      30.12F
O`NEILL        MOSUNNY   71  55  56 NE8       30.14F
ORD            MOSUNNY   75  49  39 NE5       30.10F
THEDFORD       CLOUDY    72  55  53 SE12      30.14S
$$

NEZ041-046>049-061>064-073>077-083>087-072300-
SOUTH CENTRAL NEBRASKA

CITY           SKY/WX    TMP DP  RH WIND       PRES   REMARKS
GRAND ISLAND   MOSUNNY   72  51  47 NE9       30.12F
AURORA         MOSUNNY   71  52  50 NE12      30.12F
HASTINGS       MOSUNNY   72  53  51 NE13      30.12F
HEBRON         MOSUNNY   73  46  38 E13G20    30.10F
HOLDREGE       MOSUNNY   72  51  48 E10       30.13S
KEARNEY *      MOSUNNY   73  54  49 E10       30.12F
YORK           SUNNY     70  48  46 NE10      30.12F
$$

NEZ011>018-030>034-042>045-072300-
NORTHEAST NEBRASKA

CITY           SKY/WX    TMP DP  RH WIND       PRES   REMARKS
NORFOLK        SUNNY     72  47  40 NE8       30.12F
ALBION         SUNNY     72  49  45 NE8       30.12F
BLAIR          MOSUNNY   70  51  50 NE10      30.11S
FREMONT        SUNNY     73  49  43 N7        30.12F
TEKAMAH        SUNNY     74  49  41 NE8G16    30.11F
WAYNE          SUNNY     70  51  51 NE5       30.13F
$$

NEZ050>053-065>068-078-088>093-072300-
SOUTHEAST NEBRASKA

CITY           SKY/WX    TMP DP  RH WIND       PRES   REMARKS
LINCOLN        SUNNY     73  49  42 NE8G17    30.11F
OMAHA EPPLEY   PTSUNNY   73  52  47 NE7       30.10F
BEATRICE       SUNNY     72  51  48 NE9       30.10F
FALLS CITY     PTSUNNY   73  53  49 NE9G17    30.07F
NEBRASKA CITY  MOSUNNY   72  45  37 NE9       30.09F
PLATTSMOUTH    SUNNY     72  48  43 E9        30.11S
$$

NEZ044-045-051>053-067-072300-
OMAHA AREA

CITY           SKY/WX    TMP DP  RH WIND       PRES   REMARKS
OMAHA EPPLEY   PTSUNNY   73  52  47 NE7       30.10F
BLAIR          MOSUNNY   70  51  50 NE10      30.11S
FREMONT        SUNNY     73  49  43 N7        30.12F
MILLARD        MOSUNNY   72  52  49 CALM      30.10F
OFFUTT AFB     MOSUNNY   71  53  51 NE9       30.09F
PLATTSMOUTH    SUNNY     72  48  43 E9        30.11S
WAHOO          FAIR      72  50  45 NE8       30.11F
$$



USA.gov is the U.S. government's official web portal to all federal, state and local government web resources and services.